{"data":{"norad_id":52579,"intl_designator":"2022-051AV","name":"STARLINK-3893","alt_names":[],"object_type":"PAYLOAD","status":"ACTIVE","operator":null,"country":"US","launch_date":"2022-05-13","launch_site_code":"AFWTR","launch_vehicle":null,"mission":null,"orbit_class":"UNKNOWN","rcs_meters":null,"size_class":null,"mass_kg":null,"dimensions":null,"purposes":["comms"],"wikipedia_slug":null,"has_3d_model":false,"image_url":null,"decayed_at":null,"tle_current":{"epoch":"2026-05-25T00:44:44.226816Z","epoch_age_seconds":68569,"freshness":"FRESH","line1":"1 52579U 22051AV  26145.03106744 -.00000227  00000+0  37960-5 0  9992","line2":"2 52579  53.2167 151.4120 0001144  70.5181 289.5934 15.08835906222900","mean_motion":15.08835906,"eccentricity":0.0001144,"inclination_deg":53.2167,"raan_deg":151.412,"arg_perigee_deg":70.5181,"mean_anomaly_deg":289.5934,"bstar":3.796e-6,"rev_number":22290,"period_min":95.437813633261,"perigee_km":538.9644957645,"apogee_km":540.54730966064,"semimajor_km":6917.8929027126,"source":"CELESTRAK","updated_at":"2026-05-25T13:38:17.193807Z"}}}